"Pseudo-MPEC" for P21XXNo

Created 2024 Sep 11 3:22:17 UT using Find_Orb

Click here for an explanation of pseudo-MPECs

 
 Astrometry: 
     P21XXNo* C2024 09 04.41456422 48 33.178-06 37 28.31   ~94Bq 21.84wXNEOCPF52
     P21XXNo  C2024 09 04.42706922 48 30.255-06 37 15.29   ~94Bq 21.38wXNEOCPF52
     P21XXNo  C2024 09 04.43960422 48 27.346-06 37 01.91   ~94Bq 21.96wXNEOCPF52
     P21XXNo  C2024 09 04.45213222 48 24.467-06 36 48.81   ~94Bq 21.61wXNEOCPF52
     P21XXNo  C2024 09 04.51080922 48 11.251-06 35 43.87   ~94Kb 21.28GVNEOCPF52
     P21XXNo  C2024 09 04.51146722 48 11.118-06 35 43.08   ~94Kb 21.74GVNEOCPF52
     P21XXNo 7C2024 09 05.10052022 47 01.368-06 26 42.51   ~95A7 20.9 GVNEOCPZ84
     P21XXNo 7C2024 09 05.11244022 46 59.095-06 26 29.24   ~95A7       VNEOCPZ84
     P21XXNo 7C2024 09 05.12441122 46 56.910-06 26 15.80   ~95A7 21.9 GVNEOCPZ84
     P21XXNo !C2024 09 05.26531 22 46 56.04 -06 23 50.8    ~95Aq 22.3 GVNEOCP673
     P21XXNo !C2024 09 05.28025 22 46 52.91 -06 23 36.3    ~95Aq       VNEOCP673
     P21XXNo KC2024 09 07.32415622 43 07.180-05 51 16.81   ~978M 21.84GVNEOCPV06
     P21XXNo KC2024 09 07.32733022 43 06.575-05 51 14.00   ~978M 22.05GVNEOCPV06
     P21XXNo KC2024 09 07.33050922 43 05.988-05 51 10.55   ~978M 21.54GVNEOCPV06
     P21XXNo KC2024 09 07.33368822 43 05.351-05 51 08.03   ~978M 22.16GVNEOCPV06

Station data:
(673) Table Mountain Observatory, Wrightwood  (N34.381485 W117.682170)
   US/California.  Observers J. Chesley, J. Pittichova. Measurer W. M. Owen
   Jr. 0.61-m f/16 reflector + CCD.
(F52) Pan-STARRS 2, Haleakala  (N20.707382 W156.255910)  US/Hawaii.
   Observers J. Bulger, T. Dukes, T. Lowe, A. Schultz, M. Willman. Measurers
   K. Chambers, S. Chastel, T. de Boer, L. Denneau, J. Fairlamb, H.
   Flewelling, M. Huber, C.-C. Lin, E. Magnier, Y. Ramanjooloo, R. Wainscoat,
   R. Weryk. 1.8-m Ritchey-Chrétien + CCD.
(V06) Catalina Sky Survey-Kuiper  (N32.416871 W110.732550)  US/Arizona.
   Observers T. A. Pruyne, B. M. Africano, E. J. Christensen, G. A. Farneth,
   D. C. Fuls, A. R. Gibbs, A. D. Grauer, H. Gröller, J. A. Johnson, R. A.
   Kowalski, S. M. Larson, G. J. Leonard, D. Rankin, R. L. Seaman, F. C.
   Shelly, K. W. Wierzchoś. 1.55-m reflector + CCD.
(Z84) Calar Alto-Schmidt  (N37.224046 W2.548210)  Spain.  Observer F. Ocaña.
   Measurers E. Schwab, D. Koschny, M. Micheli. 0.8-m f/3 Schmidt + CCD.

Orbital elements:  P21XXNo
   Perihelion 2024 Jun 1.57607 +/- 0.0205 TT = 13:49:32 (JD 2460463.07607)
Epoch 2024 Sep  7.0 TT = JDT 2460560.5   Earth MOID: 0.0090      AutoNEOCP
M  90.58984681 +/- 0.024            (J2000 ecliptic)
n   0.92985206 +/- 6.45e-5          Peri.  269.22067 +/- 0.015
a   1.03958532 +/- 4.81e-5          Node   340.19721 +/- 0.0006
e   0.0383074 +/- 0.000155          Incl.    0.90212 +/- 0.0010
P   1.060/387.151d         H 28.97  G  0.15   U  6.3
q 0.99976147 +/- 0.000148    Q 1.07940918 +/- 0.000187
From 15 observations 2024 Sept. 4-7; mean residual 0".21
Residuals in arcseconds: 
240904 F52  .13+  .04-    240904 F52  .13+  .06+    240905 673  .45-  .37-    
240904 F52  .16-  .01-    240905 Z84  .09+  .01-    240907 V06  .11+  .02+    
240904 F52  .14-  .18+    240905 Z84  .31-  .09+    240907 V06  .06+  .10-    
240904 F52  .16+  .09-    240905 Z84  .09-  .22+    240907 V06  .27+  .40+    
240904 F52  .02-  .02+    240905 673  .22+  .58-    240907 V06  .28-  .03-    

Ephemerides (geocentric):
Date (UTC) HH   RA             Dec           delta  r     elong  mag " sig PA
---- --------  ------------   ------------  ------ ------ -----  --- --------
2024 09 11 03  22 37 41.705   -04 57 32.26  .03802 1.0442 170.0 22.6 .337  41
2024 09 11 04  22 37 38.647   -04 57 01.75  .03807 1.0442 169.9 22.6 .339  41
2024 09 11 05  22 37 35.601   -04 56 31.31  .03811 1.0442 169.9 22.6 .342  41
2024 09 11 06  22 37 32.566   -04 56 00.92  .03815 1.0442 169.8 22.6 .344  42
2024 09 11 07  22 37 29.542   -04 55 30.59  .03820 1.0443 169.8 22.6 .346  42
2024 09 11 08  22 37 26.530   -04 55 00.33  .03824 1.0443 169.7 22.6 .349  42
2024 09 11 09  22 37 23.529   -04 54 30.12  .03829 1.0443 169.7 22.6 .351  42
2024 09 11 10  22 37 20.539   -04 53 59.98  .03833 1.0443 169.6 22.6 .353  43
2024 09 11 11  22 37 17.561   -04 53 29.89  .03838 1.0444 169.6 22.6 .356  43
2024 09 11 12  22 37 14.594   -04 52 59.86  .03842 1.0444 169.5 22.6 .358  43
2024 09 11 13  22 37 11.638   -04 52 29.90  .03846 1.0444 169.5 22.6 .360  43
2024 09 11 14  22 37 08.693   -04 51 59.99  .03851 1.0445 169.4 22.6 .363  44
2024 09 11 15  22 37 05.759   -04 51 30.14  .03855 1.0445 169.4 22.6 .365  44
2024 09 11 16  22 37 02.837   -04 51 00.35  .03860 1.0445 169.3 22.7 .368  44
2024 09 11 17  22 36 59.925   -04 50 30.62  .03864 1.0445 169.3 22.7 .370  44
2024 09 11 18  22 36 57.025   -04 50 00.95  .03869 1.0446 169.2 22.7 .373  45
2024 09 11 19  22 36 54.136   -04 49 31.33  .03873 1.0446 169.2 22.7 .375  45
2024 09 11 20  22 36 51.258   -04 49 01.77  .03877 1.0446 169.1 22.7 .378  45
2024 09 11 21  22 36 48.391   -04 48 32.27  .03882 1.0446 169.1 22.7 .380  45
2024 09 11 22  22 36 45.536   -04 48 02.83  .03886 1.0447 169.0 22.7 .383  45
2024 09 11 23  22 36 42.691   -04 47 33.45  .03891 1.0447 169.0 22.7 .386  46
2024 09 12 00  22 36 39.857   -04 47 04.12  .03895 1.0447 168.9 22.7 .388  46
2024 09 12 01  22 36 37.035   -04 46 34.86  .03900 1.0447 168.9 22.7 .391  46
2024 09 12 02  22 36 34.223   -04 46 05.64  .03904 1.0448 168.8 22.7 .394  46
2024 09 12 03  22 36 31.422   -04 45 36.49  .03909 1.0448 168.8 22.7 .396  46
2024 09 12 04  22 36 28.633   -04 45 07.39  .03913 1.0448 168.7 22.7 .399  47
2024 09 12 05  22 36 25.854   -04 44 38.35  .03918 1.0448 168.7 22.7 .402  47
2024 09 12 06  22 36 23.086   -04 44 09.36  .03922 1.0449 168.6 22.7 .404  47
2024 09 12 07  22 36 20.330   -04 43 40.43  .03927 1.0449 168.6 22.7 .407  47
2024 09 12 08  22 36 17.584   -04 43 11.56  .03931 1.0449 168.5 22.7 .410  48
2024 09 12 09  22 36 14.849   -04 42 42.74  .03936 1.0450 168.5 22.7 .413  48
2024 09 12 10  22 36 12.125   -04 42 13.98  .03940 1.0450 168.4 22.7 .415  48
2024 09 12 11  22 36 09.412   -04 41 45.27  .03945 1.0450 168.4 22.7 .418  48
2024 09 12 12  22 36 06.710   -04 41 16.62  .03949 1.0450 168.3 22.7 .421  48
2024 09 12 13  22 36 04.018   -04 40 48.02  .03954 1.0451 168.3 22.7 .424  48
2024 09 12 14  22 36 01.337   -04 40 19.48  .03958 1.0451 168.2 22.8 .427  49
2024 09 12 15  22 35 58.668   -04 39 51.00  .03963 1.0451 168.2 22.8 .430  49
2024 09 12 16  22 35 56.009   -04 39 22.56  .03967 1.0451 168.1 22.8 .433  49
2024 09 12 17  22 35 53.360   -04 38 54.19  .03972 1.0452 168.1 22.8 .436  49
2024 09 12 18  22 35 50.723   -04 38 25.86  .03976 1.0452 168.1 22.8 .439  49
2024 09 12 19  22 35 48.096   -04 37 57.60  .03981 1.0452 168.0 22.8 .441  50
2024 09 12 20  22 35 45.480   -04 37 29.38  .03985 1.0452 168.0 22.8 .444  50
2024 09 12 21  22 35 42.875   -04 37 01.22  .03990 1.0453 167.9 22.8 .447  50
2024 09 12 22  22 35 40.280   -04 36 33.11  .03994 1.0453 167.9 22.8 .450  50
2024 09 12 23  22 35 37.696   -04 36 05.06  .03999 1.0453 167.8 22.8 .454  50
2024 09 13 00  22 35 35.123   -04 35 37.06  .04003 1.0453 167.8 22.8 .457  50
2024 09 13 01  22 35 32.560   -04 35 09.11  .04008 1.0454 167.7 22.8 .460  51
2024 09 13 02  22 35 30.008   -04 34 41.22  .04013 1.0454 167.7 22.8 .463  51